Weather History for KT65 - June, 2014

Change the Weather History Date:

Friday, June 6, 2014

  Actual Average (KMFE) Record (KMFE)
Temperature  
Mean Temperature 84 °F 85 °F  
Max Temperature 93 °F 96 °F 103 °F (2001)
Min Temperature 74 °F 75 °F 61 °F (1946)
Degree Days  
Heating Degree Days 0 0  
Month to date heating degree days 0  
Since 1 June heating degree days 0  
Since 1 July heating degree days 579  
Cooling Degree Days 18 20  
Month to date cooling degree days 120  
Year to date cooling degree days 1375  
Since 1 June cooling degree days 120  
Growing Degree Days 34 (Base 50)    
Moisture  
Dew Point 69 °F    
Average Humidity 64    
Maximum Humidity 87    
Minimum Humidity 38    
Precipitation  
Precipitation 0.00 in 0.09 in 1.75 in (1952)
Month to date precipitation 0.49  
Year to date precipitation 7.27  
Sea Level Pressure  
Sea Level Pressure 29.87 in    
Wind  
Wind Speed 10 mph (SSE)    
Max Wind Speed 18 mph    
Max Gust Speed 30 mph    
Visibility 10 miles    
Events      
T = Trace of Precipitation, MM = Missing Value Source: NWS Daily Summary

Daily Weather History Graph

Daily Weather History Graph

Search for Another Location

Airport or City:

Trip Planner

Search our weather history database for the weather conditions in past years. The results will help you decide how hot, cold, wet, or windy it might be!

Date:

Astronomy

Jun. 06, 2014 Rise Set
Actual Time 6:39 AM CDT 8:22 PM CDT
Civil Twilight 6:13 AM CDT 8:48 PM CDT
Nautical Twilight 5:41 AM CDT 9:19 PM CDT
Astronomical Twilight 5:09 AM CDT 9:52 PM CDT
Moon 2:17 PM CDT (6/6) 1:54 AM CDT (6/6)
Length of Visible Light 14h 35m
Length of Day
13h 43m
First Quarter, 58% of the Moon is Illuminated
Jun 6
First Quarter
Jun 12
Full
Jun 19
Last Quarter
Jun 27
New
Jul 5
First Quarter

Hourly Weather History & Observations

Time (CDT) Temp. Heat Index Dew Point Humidity Pressure Visibility Wind Dir Wind Speed Gust Speed Precip Events Conditions
12:15 AM 77.9 °F - 69.6 °F 76% 29.87 in 10.0 mi SSE 10.4 mph - N/A   Clear
12:35 AM 77.5 °F - 69.8 °F 77% 29.87 in 10.0 mi SSE 9.2 mph - N/A   Clear
12:55 AM 77.4 °F - 69.8 °F 77% 29.87 in 10.0 mi SSE 9.2 mph - N/A   Clear
1:15 AM 77.0 °F - 69.8 °F 78% 29.87 in 10.0 mi SSE 8.1 mph - N/A   Clear
1:35 AM 77.0 °F - 70.0 °F 79% 29.86 in 10.0 mi SSE 8.1 mph - N/A   Clear
1:55 AM 76.6 °F - 70.0 °F 80% 29.86 in 10.0 mi SSE 6.9 mph - N/A   Clear
2:15 AM 76.5 °F - 70.2 °F 81% 29.85 in 10.0 mi SE 5.8 mph - N/A   Clear
2:35 AM 75.7 °F - 70.2 °F 83% 29.85 in 10.0 mi SE 4.6 mph - N/A   Clear
2:55 AM 75.4 °F - 70.0 °F 83% 29.84 in 10.0 mi SE 5.8 mph - N/A   Clear
3:15 AM 75.4 °F - 70.2 °F 84% 29.84 in 10.0 mi SSE 4.6 mph - N/A   Clear
3:35 AM 75.2 °F - 70.0 °F 84% 29.84 in 10.0 mi SE 3.5 mph - N/A   Clear
3:55 AM 74.8 °F - 70.2 °F 85% 29.84 in 10.0 mi SE 4.6 mph - N/A   Clear
4:15 AM 74.8 °F - 70.2 °F 85% 29.84 in 10.0 mi SE 4.6 mph - N/A   Clear
4:35 AM 74.7 °F - 70.2 °F 86% 29.83 in 10.0 mi SSE 5.8 mph - N/A   Scattered Clouds
4:55 AM 74.8 °F - 70.3 °F 86% 29.83 in 10.0 mi SE 4.6 mph - N/A   Scattered Clouds
5:15 AM 74.8 °F - 70.7 °F 87% 29.83 in 10.0 mi Calm Calm - N/A   Clear
5:35 AM 74.8 °F - 70.7 °F 87% 29.83 in 10.0 mi SE 4.6 mph - N/A   Clear
5:55 AM 75.2 °F - 70.9 °F 86% 29.84 in 7.0 mi SE 5.8 mph - N/A   Clear
6:15 AM 75.2 °F - 70.9 °F 86% 29.84 in 10.0 mi SE 5.8 mph - N/A   Clear
6:35 AM 75.2 °F - 70.9 °F 86% 29.85 in 10.0 mi SE 6.9 mph - N/A   Clear
6:55 AM 75.6 °F - 71.1 °F 86% 29.85 in 7.0 mi SSE 6.9 mph - N/A   Clear
7:15 AM 76.3 °F - 71.6 °F 85% 29.85 in 7.0 mi SSE 6.9 mph - N/A   Clear
7:35 AM 77.4 °F - 72.0 °F 83% 29.86 in 7.0 mi SE 9.2 mph - N/A   Clear
7:55 AM 79.0 °F - 72.5 °F 80% 29.86 in 7.0 mi SE 9.2 mph - N/A   Clear
8:15 AM 80.6 °F 84.9 °F 72.3 °F 76% 29.87 in 7.0 mi SSE 11.5 mph 17.3 mph N/A   Clear
8:35 AM 82.4 °F 87.7 °F 72.5 °F 72% 29.88 in 7.0 mi SSE 11.5 mph - N/A   Clear
8:55 AM 82.8 °F 87.7 °F 71.8 °F 69% 29.88 in 7.0 mi SSE 13.8 mph 21.9 mph N/A   Scattered Clouds
9:15 AM 84.0 °F 89.0 °F 71.1 °F 65% 29.89 in 7.0 mi SE 17.3 mph - N/A   Mostly Cloudy
9:35 AM 85.5 °F 90.1 °F 70.3 °F 60% 29.89 in 10.0 mi SSE 17.3 mph 23.0 mph N/A   Mostly Cloudy
9:55 AM 86.5 °F 91.4 °F 70.2 °F 58% 29.89 in 7.0 mi SSE 16.1 mph 23.0 mph N/A   Scattered Clouds
10:15 AM 86.9 °F 91.7 °F 69.8 °F 57% 29.89 in 10.0 mi SSE 17.3 mph 23.0 mph N/A   Scattered Clouds
10:35 AM 88.5 °F 92.7 °F 68.7 °F 52% 29.89 in 7.0 mi SSE 15.0 mph 26.5 mph N/A   Scattered Clouds
10:55 AM 90.5 °F 94.2 °F 67.5 °F 47% 29.88 in 10.0 mi SSE 15.0 mph 21.9 mph N/A   Scattered Clouds
11:15 AM 91.0 °F 92.6 °F 64.4 °F 41% 29.89 in 10.0 mi SSE 18.4 mph 27.6 mph N/A   Scattered Clouds
11:35 AM 90.3 °F 91.9 °F 64.4 °F 42% 29.89 in 10.0 mi South 16.1 mph 23.0 mph N/A   Scattered Clouds
11:55 AM 91.9 °F 93.3 °F 63.7 °F 39% 29.90 in 10.0 mi SSE 17.3 mph 29.9 mph N/A   Scattered Clouds
12:15 PM 90.7 °F 92.1 °F 64.0 °F 41% 29.89 in 10.0 mi SSE 18.4 mph 24.2 mph N/A   Mostly Cloudy
12:35 PM 89.8 °F 91.8 °F 65.5 °F 44% 29.89 in 10.0 mi SSE 17.3 mph 21.9 mph N/A   Overcast
12:55 PM 90.9 °F 94.0 °F 67.1 °F 45% 29.88 in 10.0 mi South 17.3 mph 24.2 mph N/A   Overcast
1:15 PM 89.6 °F 92.2 °F 66.6 °F 46% 29.88 in 10.0 mi South 15.0 mph 21.9 mph N/A   Overcast
1:35 PM 87.8 °F 91.1 °F 67.8 °F 51% 29.88 in 10.0 mi South 16.1 mph 23.0 mph N/A   Overcast
1:55 PM 86.7 °F 91.0 °F 69.3 °F 56% 29.88 in 10.0 mi SSW 15.0 mph 25.3 mph N/A   Overcast
2:15 PM 89.8 °F 95.1 °F 70.2 °F 52% 29.88 in 10.0 mi South 17.3 mph 23.0 mph N/A   Mostly Cloudy
2:35 PM 90.7 °F 95.4 °F 69.3 °F 49% 29.88 in 10.0 mi SSE 18.4 mph 23.0 mph N/A   Mostly Cloudy
2:55 PM 90.5 °F 95.5 °F 69.4 °F 50% 29.87 in 10.0 mi SSE 17.3 mph - N/A   Mostly Cloudy
3:15 PM 92.5 °F 97.4 °F 68.9 °F 46% 29.87 in 10.0 mi South 18.4 mph - N/A   Mostly Cloudy
3:35 PM 92.7 °F 96.2 °F 66.9 °F 43% 29.86 in 10.0 mi South 17.3 mph 23.0 mph N/A   Scattered Clouds
3:55 PM 92.5 °F 95.9 °F 66.7 °F 43% 29.86 in 10.0 mi SSE 15.0 mph 19.6 mph N/A   Mostly Cloudy
4:15 PM 93.2 °F 96.2 °F 66.6 °F 41% 29.86 in 10.0 mi South 16.1 mph 23.0 mph N/A   Mostly Cloudy
4:35 PM 91.6 °F 94.8 °F 66.7 °F 44% 29.86 in 10.0 mi SSE 15.0 mph 19.6 mph N/A   Mostly Cloudy
4:55 PM 92.7 °F 95.3 °F 65.7 °F 41% 29.86 in 10.0 mi SE 15.0 mph 21.9 mph N/A   Mostly Cloudy
5:15 PM 91.9 °F 94.1 °F 65.3 °F 41% 29.85 in 10.0 mi SSE 16.1 mph 19.6 mph N/A   Scattered Clouds
5:35 PM 91.8 °F 92.6 °F 63.0 °F 38% 29.85 in 10.0 mi SSE 17.3 mph 25.3 mph N/A   Clear
5:55 PM 91.6 °F 93.1 °F 63.9 °F 40% 29.86 in 10.0 mi SSE 15.0 mph 23.0 mph N/A   Scattered Clouds
6:15 PM 91.6 °F 93.1 °F 63.9 °F 40% 29.86 in 10.0 mi SE 10.4 mph 18.4 mph N/A   Scattered Clouds
6:35 PM 90.0 °F 91.3 °F 64.0 °F 42% 29.85 in 10.0 mi SSE 15.0 mph 23.0 mph N/A   Clear
6:55 PM 89.6 °F 90.8 °F 64.0 °F 42% 29.86 in 10.0 mi SSE 11.5 mph 21.9 mph N/A   Clear
7:15 PM 88.7 °F 89.8 °F 63.9 °F 43% 29.86 in 10.0 mi SSE 13.8 mph 18.4 mph N/A   Clear
7:35 PM 88.0 °F 89.3 °F 64.4 °F 45% 29.86 in 10.0 mi SSE 13.8 mph 17.3 mph N/A   Clear
7:55 PM 86.5 °F 88.7 °F 65.7 °F 50% 29.86 in 10.0 mi SSE 13.8 mph 19.6 mph N/A   Clear
8:15 PM 85.8 °F 88.5 °F 66.9 °F 53% 29.87 in 10.0 mi SSE 11.5 mph 16.1 mph N/A   Scattered Clouds
8:35 PM 84.4 °F 89.0 °F 70.3 °F 63% 29.87 in 10.0 mi ESE 10.4 mph 16.1 mph N/A   Mostly Cloudy
8:55 PM 83.3 °F 87.9 °F 71.1 °F 66% 29.87 in 10.0 mi SE 10.4 mph 19.6 mph N/A   Scattered Clouds
9:15 PM 82.4 °F 86.7 °F 70.9 °F 68% 29.88 in 10.0 mi SE 11.5 mph - N/A   Clear
9:35 PM 81.5 °F 85.5 °F 71.1 °F 70% 29.89 in 10.0 mi SE 11.5 mph 17.3 mph N/A   Clear
9:55 PM 81.0 °F 85.1 °F 71.4 °F 73% 29.89 in 10.0 mi SE 8.1 mph 16.1 mph N/A   Clear
10:15 PM 80.6 °F 84.4 °F 71.4 °F 73% 29.89 in 10.0 mi SE 8.1 mph - N/A   Clear
10:35 PM 79.9 °F - 71.6 °F 76% 29.90 in 10.0 mi SE 8.1 mph - N/A   Clear
10:55 PM 79.3 °F - 71.8 °F 78% 29.91 in 10.0 mi SE 8.1 mph - N/A   Clear
11:15 PM 79.0 °F - 71.8 °F 78% 29.91 in 10.0 mi SE 6.9 mph - N/A   Clear
11:35 PM 79.3 °F - 72.1 °F 79% 29.91 in 10.0 mi SE 6.9 mph - N/A   Scattered Clouds
11:55 PM 79.3 °F - 72.5 °F 79% 29.90 in 10.0 mi SE 6.9 mph - N/A   Overcast